Weather Roundup
Issued by NWS Corpus Christi, TX

Home | Current Version | Previous Version | Text Only | Print | Product List | Glossary On
Versions: 1 2 3 4 5 6 7 8 9 10 11 12 13 14 15 16 17 18 19 20 21 22 23 24 25 26 27 28 29 30 31 32 33 34 35 36 37 38 39 40 41 42 43 44 45 46 47 48 49 50
000
ASUS44 KCRP 221410
HRRCRP

SOUTH TEXAS REGIONAL WEATHER ROUNDUP
NATIONAL WEATHER SERVICE CORPUS CHRISTI TX
900 AM CDT WED OCT 22 2014


TXZ229>244-221500-
...CORPUS CHRISTI AREA OBSERVATIONS...

CITY           SKY/WX    TMP DP  RH WIND       PRES   REMARKS
CORPUS CHRISTI MOSUNNY   71  67  87 NE8       30.04R
NAS CORPUS CHR MOSUNNY   77  69  76 E10       30.03R
ROCKPORT       SUNNY     70  65  84 NE7       30.05R
KINGSVILLE NAS MOSUNNY   71  68  90 N9        30.04R
ALICE          SUNNY     70  64  81 NE10      30.04R
FALFURRIAS     SUNNY     67  64  90 N5        30.03R
$$

...VICTORIA AREA OBSERVATIONS...

CITY           SKY/WX    TMP DP  RH WIND       PRES   REMARKS
VICTORIA       MOSUNNY   67  61  81 NE9       30.07R
BEEVILLE       FAIR      69  60  74 NE6       30.06R
PLEASANTON     MOSUNNY   63  55  76 NE3       30.10R
SAN ANTONIO    PTSUNNY   67  55  65 CALM      30.11R
$$

...LAREDO AREA OBSERVATIONS...

CITY           SKY/WX    TMP DP  RH WIND       PRES   REMARKS
LAREDO         SUNNY     69  66  90 NE7       30.08R
COTULLA        SUNNY     68  57  68 E13       30.07R
DEL RIO        CLOUDY    69  57  65 E7        30.07R
MCALLEN        PTSUNNY   73  69  87 NE5       30.02R
HEBBRONVILLE   MOSUNNY   68  64  87 NE8       30.06R
$$

...OTHER TEXAS OBSERVATIONS...

CITY           SKY/WX    TMP DP  RH WIND       PRES   REMARKS
BROWNSVILLE    LGT RAIN  73  72  96 S8        30.00R
HOUSTON        MOSUNNY   67  62  84 NE8       30.10R
COL. STATION   MOSUNNY   67  62  84 NE6       30.12R
AUSTIN         PTSUNNY   65  60  84 CALM      30.12R
WACO           SUNNY     64  60  87 NE3       30.13R FOG
FORT WORTH     MOSUNNY   65  62  90 SE5       30.14R FOG
WICHITA FALLS  MOSUNNY   59  55  87 CALM      30.13R
LUBBOCK        CLOUDY    62  59  90 S9        30.13R
EL PASO        MOCLDY    61  56  83 NE3       30.11R
$$

...MARINE OBSERVATIONS...

STATION/POSITION TIME  SKY/WX   TEMP    WIND        PRES    VSBY  WAVE   SWELL
                                AIR SEA DIR/SP/G                  HT/PER HT/PER
                 (UTC)          (F)     (DEG/KT/KT) (MB)    (MI)  (FT/S) (FT/S)
PORT ARANSAS     1400            78 78   80/ 16/ 18 1017.4R
BUOY 90 E PORT A 1400            78 81   70/ 16/ 19 1016.9R         6/ 7
BUOY 45 SE BAFFI 1400            80 81   80/ 16/ 19 1015.5R         6/ 7
BUOY 200 E PT IS 1400            80 81   60/ 17/ 21 1014.2R         7/ 7   2/12
BUOY 15 E GALVES 1400            74 77   70/ 16/ 17 1017.6R         4/ 5
$$



USA.gov is the U.S. government's official web portal to all federal, state and local government web resources and services.